Tracking 26955 objects as of 3-Feb-2023
HD Live streaming from Space Station
objects crossing your sky now

ANGOSAT 2

Track ANGOSAT 2 now!


NORAD ID: 54033
Int'l Code: 2022-131A
Perigee: 35,792.4 km
Apogee: 35,794.6 km
Inclination: 0.0 °
Period: 1,436.1 minutes
Semi major axis: 42164 km
RCS: Unknown
Launch date: October 12, 2022
Source: (AGO)
Launch site: TYURATAM MISSILE AND SPACE COMPLEX (TTMTR)
Your satellite tracking list
Your tracking list is empty




NASA's NSSDC Master Catalog

Two Line Element Set (TLE):
1 54033U 22131A   23033.50574399  .00000138  00000-0  00000-0 0  9999
2 54033   0.0172 158.3753 0000267 202.7638 336.3204  1.00272729  1127
Source of the keplerian elements: AFSPC